Location: Unspecified
(41.4057°N, 2.1753°E)
Time: 22:52:08
(UTC+01:00)

ISS - Visible Passes

Search period start: 27 November 2014 00:00
Search period end: 07 December 2014 00:00
Orbit: 407 x 417 km, 51.6° (Epoch: 27 November)

Date Brightness Start Highest point End Pass type
(mag) Time Alt. Az. Time Alt. Az. Time Alt. Az.
27 Nov 0.2 05:03:37 11° ENE 05:03:37 11° ENE 05:03:48 10° E visible
27 Nov -3.1 06:36:27 29° WNW 06:37:50 55° SW 06:41:04 10° SE visible
28 Nov -2.3 05:48:56 46° ESE 05:48:56 46° ESE 05:51:21 10° ESE visible
28 Nov -0.9 07:23:06 10° WSW 07:24:14 11° SW 07:25:23 10° SSW visible
29 Nov -1.7 06:34:17 20° SW 06:34:36 20° SW 06:37:07 10° S visible
30 Nov -1.0 05:46:51 18° SSE 05:46:51 18° SSE 05:47:55 10° SSE visible
06 Dec -1.0 19:00:56 10° S 19:01:57 14° SSE 19:01:57 14° SSE visible
